819  
ASUS46 KSGX 260511  
RWRSGX  
 
SAN DIEGO HOURLY WEATHER ROUNDUP  
NATIONAL WEATHER SERVICE SAN DIEGO CA  
1000 PM PDT MON OCT 25 2021  
 
NOTE: "FAIR" INDICATES FEW OR NO CLOUDS BELOW 12,000 FEET WITH NO  
SIGNIFICANT WEATHER AND/OR S TO VISIBILITY
.  
 
CAZ042-043-060-061-PZZ750-775-260600-  
 
GREATER SAN DIEGO AREA  
 
CITY SKY/WX TMP DP RH WIND PRES REMARKS
 
SAN DIEGO AP MOCLDY 61 54 77 CALM 30.01R  
BROWN FIELD CLOUDY 57 53 86 CALM 30.00R  
MIRAMAR MCAS CLOUDY 54 54 100 SE5 30.00R  
MONTGOMERY FLD CLOUDY 57 54 89 E3 30.00R  
GILLESPIE FLD CLOUDY 57 54 88 CALM 29.99R  
LEMON GROVE N/A 55 54 96 CALM 29.98R  
 

 
 
NORTH SAN DIEGO COUNTY  
 
CITY SKY/WX TMP DP RH WIND PRES REMARKS
 
CAMP PENDLETON CLOUDY 62 53 72 CALM 29.99R  
OCEANSIDE AP MOCLDY 55 32 41 CALM 29.98R  
OCEANSIDE HBR N/A 56 55 94 CALM 30.04R  
VISTA N/A 55 50 84 CALM 29.96R  
CARLSBAD LGT RAIN 56 54 93 SE3 29.98R FOG  
ENCINITAS N/A 55 54 96 CALM N/A  
ESCONDIDO N/A 55 52 90 CALM 30.00R  
SAN MARCOS N/A 54 51 92 CALM 30.02R  
RANCHO BERNARD N/A 55 51 87 E1 29.99R  
POWAY N/A 55 53 93 S2 30.01R  
 

 
 
EAST SAN DIEGO COUNTY  
 
CITY SKY/WX TMP DP RH WIND PRES REMARKS
 
RAMONA CLOUDY 52 50 93 SE5 30.00R  
SANTEE N/A 55 54 96 CALM 29.96R  
LA MESA N/A 54 52 90 CALM 29.94R  
EL CAJON N/A 55 54 95 W1 29.88R  
ALPINE N/A 51 50 96 CALM 30.18R  
 

 
 
ORANGE COUNTY AND THE LOS ANGELES BASIN  
 
CITY SKY/WX TMP DP RH WIND PRES REMARKS
 
JOHN WAYNE AP PTCLDY 61 52 72 CALM 29.95R  
LAGUNA BEACH N/A 57 55 92 CALM 29.95R  
LAKE FOREST FR N/A 55 52 90 CALM 29.85R  
SANTA ANA N/A 57 56 95 CALM 29.94R  
HUNTINGTON BCH N/A 59 55 86 CALM 29.95R  
LOS ALAMITOS PTCLDY 53 53 100 SE3 29.95R  
FULLERTON CLEAR 57 54 89 E5 29.94R  
LONG BEACH CLEAR 59 52 77 CALM 29.94R  
L.A. AP CLEAR 60 50 69 N3 29.94R  
L.A. DOWNTOWN CLEAR 55 53 93 CALM 29.93R  
 

 
 
THE INLAND EMPIRE  
 
CITY SKY/WX TMP DP RH WIND PRES REMARKS
 
CORONA CLEAR 56 52 86 CALM 29.96R  
UPLAND AP MOCLDY 54 54 100 CALM 29.95R  
CHINO MOCLDY 57 52 83 CALM 29.97R  
ONTARIO PTCLDY 57 51 80 CALM 29.95R  
SAN BERNARDINO CLOUDY 56 51 81 CALM 29.96R  
RIVERSIDE AP CLOUDY 55 51 86 CALM 29.96R  
MORENO VALLEY N/A 53 53 100 CALM 29.89R  
MARCH ARB MOCLDY 54 50 87 CALM 29.96R  
HORSETHIEF CYN N/A 53 47 83 SE3 29.96R  
PERRIS N/A 54 51 90 CALM N/A  
LAKE ELSINORE N/A 54 50 87 CALM 29.90R  
HEMET AP CLOUDY 54 N/A N/A CALM 29.97  
FRENCH VALLEY NOT AVBL  
TEMECULA N/A 54 53 99 S2 29.93R  
 

 
 
SAN BERNARDINO AND RIVERSIDE COUNTY MOUNTAINS  
 
CITY SKY/WX TMP DP RH WIND PRES REMARKS
 
BIG BEAR AP MOCLDY 32 32 100 SW10G18 29.97R WCI 24  
BIG BEAR LAKE N/A 33 31 92 CALM 29.86R  
WRIGHTWOOD N/A 38 26 61 NE3 29.77R  
IDYLLWILD N/A 39 37 91 W2 29.83R  
TORO PEAK N/A 30 2 31 W33 N/A WCI 14  
 

 
 
SOUTHERN DESERT INCLUDING THE COACHELLA VALLEY  
 
CITY SKY/WX TMP DP RH WIND PRES REMARKS
 
PALM SPRINGS CLEAR 63 43 48 SE8 29.84R  
THOUSAND PALMS N/A 62 47 58 NW16 29.78F  
INDIO N/A 65 45 48 NW10 29.84R  
THERMAL CLEAR 64 46 52 NW12 29.83R  
BORREGO AP FAIR 63 37 39 SW10 29.85F  
OCOTILLO WELLS N/A 64 45 49 S7 29.77S  
IMPERIAL AP CLEAR 64 44 48 W13 29.84R  
EL CENTRO NAS PTCLDY 65 44 46 SW13 29.85F  
YUMA AZ PTCLDY 70 50 49 NW23G32 29.82R  
 

 
 
UPPER DESERT  
 
CITY SKY/WX TMP DP RH WIND PRES REMARKS
 
VICTORVILLE AP CLEAR 46 39 76 SW15G22 29.96R  
HESPERIA N/A 49 38 65 W9 29.75R  
APPLE VALLEY N/A 48 41 76 N7 29.94R  
PALMDALE NOT AVBL  
LANCASTER MOCLDY 50 39 66 W15G22 29.95R  
EDWARDS AFB PTCLDY 51 37 59 SW8 29.92R  
DAGGETT CLEAR 53 39 59 W24G32 29.88R  
29 PALMS N PTCLDY 55 38 53 W14G23 29.90F  
29 PALMS JTNP N/A 57 41 55 NW7 29.77S  
NEEDLES LGT RAIN 60 50 69 SW21G32 29.78R  
 

 
 
REGIONAL REPORTS  
 
CITY SKY/WX TMP DP RH WIND PRES REMARKS
 
SANTA BARBARA CLEAR 56 47 71 W12 29.96R  
SANDBERG CLOUDY 43 38 82 NW18G28 29.98R  
LAS VEGAS NV CLOUDY 57 39 51 SW9G24 29.76R  
PHOENIX AZ CLEAR 79 50 36 W9 29.74R  
TIJUANA MOCLDY 55 55 100 SE3 30.02  
 

 
 
OFFSHORE ISLANDS  
 
CITY SKY/WX TMP DP RH WIND PRES REMARKS
 
CATALINA ARPT PTCLDY 53 48 83 W10 29.97R  
SAN CLEMENTE I CLEAR 57 53 86 NW14 30.00  
SAN NICOLAS IS CLEAR 54 50 86 NW21G29 29.99R  
 

 
 
MARINE AND OFFSHORE BUOY REPORTS  
 
STATION/POSITION SKY/WX TEMP WIND PRES VSBY SWELL
 
AIR SEA DIR/SP/G HT/PER/DIR  
(F) (DEG/KT/KT) (MB) (MI) (FT/S/D)  
TANNER BANKS 62 63 310/ 17/ 23 1015.8R 16/310/19  
S CLEMENTE BASIN 62 65 290/ 19/ 25 1015.0R 8/310/17  
SAN NICOLAS IS. 62 N/A 15/310/18  
SO. S. ROSA ISLA 1016.9R  
W. S. BARBARA CH 58 58 320/ 12/ 17 1016.2R 15/300/17  
M. S. BARBARA CH 59 60 280/ 17/ 23 1015.6R 7/300/16  
S. MONICA BASIN 62 63 300/ 21/ 25 1013.9R 5/290/17  
S PEDRO CHANNEL 63 N/A 3/270/13  
OCEANSIDE OFFSHR 64 N/A 3/230/18  
TORREY PINES OTR 66 N/A 7/260/17  
SAN DIEGO BAY 66 1015.1  
IMPERIAL BEACH 61 63 N/A 5/270/18  
POINT LOMA SOUTH 65 N/A 5/270/18  
 

 
 
 
 
CLICK HERE TO GO TO PREVIOUS BULLETINS.

The Nexlab CA Page Main Text Page